Simultaneous Nadir Overpasses (SNOs) Predictions

Prediction of SNOs between GOES-17 and AQUA Satellite Orbit:

Table of predicted SNOs for the next 14.0 days since TLE Epoch: 8/14/2020
Index Date Time (GOES-17) GOES-17 Lat,Lon AQUA Lat,Lon Distance(km) Time Diff (sec)
1 08/16/2020 10:43:00 0.03,-137.19 0.00,-137.15 5.21 80
2 08/18/2020 10:33:29 -0.01,-137.19 -0.62,-134.19 339.87 80
3 08/18/2020 22:52:13 0.01,-137.19 -0.46,-139.39 250.37 80
4 08/20/2020 22:42:43 0.01,-137.18 0.17,-136.44 84.89 80
5 08/22/2020 22:30:32 0.00,-137.17 0.80,-133.48 419.68 80
6 08/23/2020 10:49:06 -0.00,-137.16 0.32,-138.63 167.42 80
7 08/25/2020 10:39:35 -0.00,-137.14 -0.31,-135.68 166.39 80
8 08/25/2020 22:58:20 0.00,-137.14 -0.77,-140.88 424.52 80
9 08/27/2020 10:27:24 -0.00,-137.11 -0.95,-132.72 499.41 80
10 08/27/2020 22:46:08 0.00,-137.11 -0.19,-137.91 91.61 80
